Location: Unspecified
(0.0000°N, 0.0000°E)
Time: 12:29:37
(UTC+00:00)

ADRAS-J - Pass Details

Date: 20 May 2025
Orbit: 544 x 592 km, 98.2° (Epoch: 16 June)

Event Time Altitude Azimuth Distance (km) Brightness Sun altitude
Rises 04:57:01 0° 18° (NNE) 2,800 ? -14.0°
Reaches altitude 10° 04:59:11 10° 22° (NNE) 1,908 ? -13.5°
Maximum altitude 05:03:16 60° 102° (ESE) 678 ? -12.5°
Drops below altitude 10° 05:07:24 10° 182° (S) 1,925 ? -11.5°
Sets 05:09:35 0° 186° (S) 2,828 ? -11.0°
